Weather History for Sturgis, MI

Change the Weather History Date:

Wednesday, September 26, 2012

  Actual Average (KHAI) Record (KHAI)
Temperature  
Mean Temperature 62 °F -  
Max Temperature 71 °F 69 °F 88 °F (1986)
Min Temperature 53 °F 47 °F 31 °F (1966)
Degree Days  
Heating Degree Days 3    
Growing Degree Days 12 (Base 50)    
Moisture  
Dew Point 57 °F    
Average Humidity 86    
Maximum Humidity 100    
Minimum Humidity 53    
Precipitation  
Precipitation 0.00 in - - ()
Sea Level Pressure  
Sea Level Pressure 29.99 in    
Wind  
Wind Speed 3 mph (WNW)    
Max Wind Speed 7 mph    
Max Gust Speed -    
Visibility 5 miles    
Events Fog , Rain    
Averages and records for this station are not official NWS values.
T = Trace of Precipitation, MM = Missing Value Source: NWS Daily Summary

Daily Weather History Graph

Daily Weather History Graph

Search for Another Location

Airport:

Trip Planner

Search our weather history database for the weather conditions in past years. The results will help you decide how hot, cold, wet, or windy it might be!

Date:

Astronomy

Sep. 26, 2012 Rise Set
Actual Time 7:33 AM EDT 7:31 PM EDT
Civil Twilight 7:06 AM EDT 7:58 PM EDT
Nautical Twilight 6:33 AM EDT 8:31 PM EDT
Astronomical Twilight 6:00 AM EDT 9:04 PM EDT
Moon 5:32 PM EDT (9/26) 3:56 AM EDT (9/26)
Length of Visible Light 12h 52m
Length of Day
11h 57m
Waxing Gibbous, 88% of the Moon is Illuminated
Sep 26
Waxing Gibbous
Sep 29
Full
Oct 8
Last Quarter
Oct 15
New
Oct 21
First Quarter

Hourly Weather History & Observations

Time (EDT) Temp. Dew Point Humidity Pressure Visibility Wind Dir Wind Speed Gust Speed Precip Events Conditions
12:34 AM 57.2 °F 57.2 °F 100% 29.90 in 2.5 mi SSW 3.5 mph - N/A   Clear
1:15 AM 57.2 °F 57.2 °F 100% 29.89 in 1.8 mi South 3.5 mph - N/A   Mist
1:35 AM 57.2 °F 57.2 °F 100% 29.89 in 1.5 mi South 3.5 mph - N/A   Mist
1:55 AM 57.2 °F 57.2 °F 100% 29.89 in 1.8 mi South 4.6 mph - N/A   Mist
2:15 AM 57.2 °F 57.2 °F 100% 29.90 in 1.8 mi SSW 3.5 mph - N/A   Mist
2:34 AM 57.2 °F 55.4 °F 94% 29.90 in 0.5 mi Calm Calm - N/A Fog Fog
2:55 AM 57.2 °F 57.2 °F 100% 29.90 in 0.2 mi Calm Calm - N/A Fog Fog
3:15 AM 57.2 °F 57.2 °F 100% 29.91 in 0.8 mi South 3.5 mph - N/A   Overcast
3:34 AM 59.0 °F 59.0 °F 100% 29.90 in 1.5 mi South 4.6 mph - N/A   Mostly Cloudy
4:15 AM 60.8 °F 60.8 °F 100% 29.89 in 1.8 mi Calm Calm - N/A   Mostly Cloudy
4:34 AM 60.8 °F 60.8 °F 100% 29.89 in 1.8 mi SSW 4.6 mph - N/A   Overcast
4:55 AM 60.8 °F 60.8 °F 100% 29.89 in 1.8 mi Calm Calm - N/A   Overcast
5:15 AM 60.8 °F 60.8 °F 100% 29.89 in 1.5 mi Calm Calm - N/A   Overcast
5:34 AM 60.8 °F 60.8 °F 100% 29.89 in 1.2 mi SW 3.5 mph - N/A   Overcast
5:55 AM 62.6 °F 60.8 °F 94% 29.90 in 1.0 mi WSW 3.5 mph - N/A   Overcast
6:15 AM 62.6 °F 60.8 °F 94% 29.90 in 1.0 mi WSW 3.5 mph - N/A   Overcast
6:34 AM 62.6 °F 60.8 °F 94% 29.91 in 1.0 mi Calm Calm - N/A Rain Light Rain
6:55 AM 62.6 °F 60.8 °F 94% 29.92 in 1.0 mi West 4.6 mph - N/A   Overcast
7:15 AM 62.6 °F 60.8 °F 94% 29.92 in 1.2 mi WSW 3.5 mph - N/A   Overcast
7:35 AM 62.6 °F 60.8 °F 94% 29.93 in 1.0 mi SW 5.8 mph - N/A   Overcast
7:55 AM 62.6 °F 60.8 °F 94% 29.92 in 1.0 mi SW 4.6 mph - N/A   Overcast
8:35 AM 62.6 °F 60.8 °F 94% 29.93 in 0.2 mi WSW 3.5 mph - N/A Fog Fog
8:55 AM 62.6 °F 60.8 °F 94% 29.95 in 0.2 mi WSW 4.6 mph - N/A Fog Fog
9:14 AM 62.6 °F 60.8 °F 94% 29.95 in 0.2 mi WSW 5.8 mph - N/A Fog Fog
9:35 AM 62.6 °F 62.6 °F 100% 29.95 in 0.2 mi WSW 4.6 mph - N/A Fog Fog
9:55 AM 62.6 °F 62.6 °F 100% 29.96 in 0.5 mi Calm Calm - N/A Fog Fog
10:15 AM 62.6 °F 62.6 °F 100% 29.96 in 0.8 mi West 3.5 mph - N/A   Overcast
10:35 AM 62.6 °F 62.6 °F 100% 29.97 in 1.5 mi West 3.5 mph - N/A   Overcast
10:55 AM 62.6 °F 62.6 °F 100% 29.97 in 2.0 mi West 5.8 mph - N/A   Overcast
11:15 AM 62.6 °F 62.6 °F 100% 29.98 in 1.8 mi West 4.6 mph - N/A   Overcast
11:35 AM 62.6 °F 62.6 °F 100% 29.99 in 2.0 mi WNW 5.8 mph - N/A   Overcast
11:54 AM 62.6 °F 62.6 °F 100% 29.99 in 2.0 mi WNW 3.5 mph - N/A   Mostly Cloudy
12:15 PM 64.4 °F 62.6 °F 94% 30.00 in 3.0 mi West 4.6 mph - N/A   Scattered Clouds
12:35 PM 64.4 °F 62.6 °F 94% 30.00 in 4.0 mi SW 3.5 mph - N/A   Clear
12:54 PM 66.2 °F 62.6 °F 88% 30.00 in 4.0 mi West 4.6 mph - N/A   Scattered Clouds
1:15 PM 66.2 °F 62.6 °F 88% 30.00 in 5.0 mi West 4.6 mph - N/A   Scattered Clouds
1:35 PM 68.0 °F 60.8 °F 78% 30.00 in 7.0 mi NW 3.5 mph - N/A   Scattered Clouds
2:15 PM 69.8 °F 60.8 °F 73% 30.00 in 10.0 mi WNW 5.8 mph - N/A   Scattered Clouds
2:34 PM 69.8 °F 59.0 °F 68% 30.00 in 10.0 mi West 5.8 mph - N/A   Clear
2:55 PM 69.8 °F 57.2 °F 64% 30.00 in 10.0 mi West 4.6 mph - N/A   Scattered Clouds
3:15 PM 71.6 °F 57.2 °F 60% 30.00 in 10.0 mi NNW 5.8 mph - N/A   Mostly Cloudy
3:35 PM 69.8 °F 57.2 °F 64% 30.01 in 10.0 mi North 5.8 mph - N/A   Scattered Clouds
3:55 PM 71.6 °F 57.2 °F 60% 30.01 in 10.0 mi North 6.9 mph - N/A   Scattered Clouds
4:15 PM 69.8 °F 57.2 °F 64% 30.00 in 10.0 mi North 6.9 mph - N/A   Scattered Clouds
4:34 PM 69.8 °F 57.2 °F 64% 30.00 in 10.0 mi North 3.5 mph - N/A   Scattered Clouds
4:55 PM 69.8 °F 55.4 °F 60% 30.01 in 10.0 mi North 4.6 mph - N/A   Clear
5:15 PM 69.8 °F 53.6 °F 56% 30.01 in 10.0 mi NNW 3.5 mph - N/A   Clear
5:35 PM 68.0 °F 55.4 °F 64% 30.02 in 10.0 mi NNW 3.5 mph - N/A   Clear
5:55 PM 69.8 °F 53.6 °F 56% 30.02 in 10.0 mi North 5.8 mph - N/A   Clear
6:14 PM 69.8 °F 51.8 °F 53% 30.02 in 10.0 mi North 6.9 mph - N/A   Clear
6:35 PM 68.0 °F 53.6 °F 60% 30.03 in 10.0 mi Calm Calm - N/A   Clear
6:55 PM 66.2 °F 53.6 °F 64% 30.04 in 10.0 mi Calm Calm - N/A   Clear
7:14 PM 64.4 °F 53.6 °F 68% 30.05 in 10.0 mi Calm Calm - N/A   Clear
7:35 PM 60.8 °F 55.4 °F 82% 30.06 in 10.0 mi Calm Calm - N/A   Clear
7:55 PM 57.2 °F 55.4 °F 94% 30.06 in 10.0 mi Calm Calm - N/A   Clear
8:15 PM 57.2 °F 53.6 °F 88% 30.07 in 10.0 mi Calm Calm - N/A   Clear
8:35 PM 57.2 °F 53.6 °F 88% 30.09 in 10.0 mi NNW 3.5 mph - N/A   Clear
8:54 PM 57.2 °F 51.8 °F 82% 30.10 in 10.0 mi NW 5.8 mph - N/A   Clear
9:15 PM 57.2 °F 51.8 °F 82% 30.10 in 10.0 mi NNW 5.8 mph - N/A   Clear
9:35 PM 55.4 °F 50.0 °F 82% 30.11 in 10.0 mi NNW 4.6 mph - N/A   Clear
9:54 PM 55.4 °F 48.2 °F 77% 30.11 in 10.0 mi NNW 4.6 mph - N/A   Clear
10:15 PM 53.6 °F 48.2 °F 82% 30.11 in 10.0 mi NNW 4.6 mph - N/A   Clear
10:35 PM 53.6 °F 48.2 °F 82% 30.12 in 10.0 mi North 4.6 mph - N/A   Clear
10:55 PM 53.6 °F 48.2 °F 82% 30.12 in 10.0 mi North 4.6 mph - N/A   Clear
11:15 PM 53.6 °F 48.2 °F 82% 30.13 in 10.0 mi North 4.6 mph - N/A   Scattered Clouds
11:34 PM 53.6 °F 48.2 °F 82% 30.12 in 10.0 mi North 4.6 mph - N/A   Scattered Clouds